TimeCDT,TemperatureF,Dew PointF,Humidity,Sea Level PressureIn,VisibilityMPH,Wind Direction,Wind SpeedMPH,Gust SpeedMPH,PrecipitationIn,Events,Conditions,WindDirDegrees,DateUTC
12:52 AM,63.0,60.1,90,29.94,10.0,West,6.9,-,N/A,,Clear,270,2012-09-04 05:52:00
1:29 AM,69.8,62.6,78,29.97,10.0,West,10.4,19.6,N/A,Thunderstorm,Scattered Clouds,270,2012-09-04 06:29:00
1:52 AM,69.1,60.1,73,29.84,10.0,NNE,13.8,-,0.00,Rain-Thunderstorm,Light Thunderstorms and Rain,30,2012-09-04 06:52:00
2:03 AM,68.0,60.8,78,29.88,10.0,South,13.8,27.6,0.00,,Scattered Clouds,170,2012-09-04 07:03:00
2:52 AM,64.9,57.9,78,29.84,10.0,South,10.4,-,0.00,,Clear,180,2012-09-04 07:52:00
3:52 AM,64.0,57.9,80,29.84,10.0,South,6.9,-,N/A,,Clear,190,2012-09-04 08:52:00
4:52 AM,64.9,60.1,84,29.82,10.0,South,3.5,-,N/A,,Clear,190,2012-09-04 09:52:00
5:52 AM,62.1,59.0,90,29.84,10.0,Calm,Calm,-,N/A,,Clear,0,2012-09-04 10:52:00
6:52 AM,61.0,59.0,93,29.85,9.0,SSE,6.9,-,N/A,,Clear,150,2012-09-04 11:52:00
7:52 AM,66.0,63.0,90,29.86,9.0,South,5.8,-,N/A,,Clear,180,2012-09-04 12:52:00
8:52 AM,71.1,64.0,78,29.87,10.0,South,8.1,-,N/A,,Clear,190,2012-09-04 13:52:00
9:52 AM,79.0,69.1,72,29.86,10.0,SSW,6.9,-,N/A,,Clear,210,2012-09-04 14:52:00
10:52 AM,81.0,69.1,67,29.87,10.0,WSW,8.1,-,N/A,,Clear,240,2012-09-04 15:52:00
11:52 AM,86.0,66.9,53,29.85,10.0,WNW,8.1,-,N/A,,Clear,290,2012-09-04 16:52:00
12:52 PM,87.1,64.9,48,29.83,10.0,NNW,5.8,-,N/A,,Clear,340,2012-09-04 17:52:00
1:52 PM,89.1,64.0,43,29.81,10.0,Variable,4.6,-,N/A,,Clear,0,2012-09-04 18:52:00
3:52 PM,91.9,61.0,35,29.78,10.0,North,3.5,-,N/A,,Clear,360,2012-09-04 20:52:00
4:52 PM,91.9,61.0,35,29.76,10.0,Calm,Calm,-,N/A,,Clear,0,2012-09-04 21:52:00
5:52 PM,90.0,62.1,39,29.76,10.0,ENE,6.9,-,N/A,,Clear,60,2012-09-04 22:52:00
6:52 PM,87.1,62.1,43,29.75,10.0,NE,5.8,-,N/A,,Clear,50,2012-09-04 23:52:00
7:52 PM,78.1,62.1,58,29.73,9.0,NE,5.8,-,N/A,,Clear,50,2012-09-05 00:52:00
8:52 PM,73.9,62.1,66,29.72,10.0,ENE,5.8,-,N/A,,Clear,60,2012-09-05 01:52:00
9:52 PM,73.9,60.1,62,29.72,10.0,East,5.8,-,N/A,,Clear,80,2012-09-05 02:52:00
10:27 PM,75.2,57.2,53,29.87,10.0,West,19.6,31.1,N/A,Thunderstorm,Partly Cloudy,280,2012-09-05 03:27:00
10:40 PM,66.2,60.8,83,29.88,1.8,West,25.3,54.1,0.00,Rain-Thunderstorm,Heavy Thunderstorms and Rain,280,2012-09-05 03:40:00
10:47 PM,66.2,60.8,83,29.90,1.5,WNW,25.3,40.3,N/A,Rain-Thunderstorm,Heavy Thunderstorms and Rain,290,2012-09-05 03:47:00
10:52 PM,66.9,60.1,79,29.88,2.0,West,21.9,40.3,N/A,Rain-Thunderstorm,Heavy Thunderstorms and Rain,280,2012-09-05 03:52:00
11:02 PM,66.2,60.8,83,29.90,4.0,WNW,13.8,27.6,N/A,Rain-Thunderstorm,Thunderstorms and Rain,290,2012-09-05 04:02:00
11:14 PM,66.2,60.8,83,29.89,2.5,WNW,6.9,17.3,N/A,Rain-Thunderstorm,Thunderstorms and Rain,300,2012-09-05 04:14:00
11:22 PM,66.2,60.8,83,29.89,5.0,NW,5.8,-,N/A,Rain-Thunderstorm,Thunderstorms and Rain,320,2012-09-05 04:22:00
11:52 PM,64.9,61.0,87,29.89,6.0,North,8.1,-,N/A,Rain-Thunderstorm,Thunderstorms and Rain,350,2012-09-05 04:52:00
11:57 PM,64.4,60.8,88,29.88,5.0,NE,8.1,-,0.02,Rain-Thunderstorm,Heavy Rain,50,2012-09-05 04:57:00